Punta Gorda, FL

1:28 PM EDT on March 27, 2017 (GMT -0400)
Charlotte County

Weather History for KPGD - September, 2013

Change the Weather History Date:

Sunday, September 15, 2013

  Actual Average Record
Temperature  
Mean Temperature 83 °F -  
Max Temperature 93 °F 87 °F 93 °F (2007)
Min Temperature 75 °F 71 °F 70 °F (2001)
Cooling Degree Days 18    
Growing Degree Days 33 (Base 50)    
Moisture  
Dew Point 74 °F    
Average Humidity 84    
Maximum Humidity 97    
Minimum Humidity 55    
Precipitation  
Precipitation 0.00 in - - ()
Sea Level Pressure  
Sea Level Pressure 30.03 in    
Wind  
Wind Speed 7 mph (East)    
Max Wind Speed 25 mph    
Max Gust Speed 37 mph    
Visibility 10 miles    
Events Rain    
Averages and records for this station are not official NWS values.
T = Trace of Precipitation, MM = Missing Value Source: NWS Daily Summary

Daily Weather History Graph

Daily Weather History Graph

Search for Another Location

Airport or City:

Trip Planner

Search our weather history database for the weather conditions in past years. The results will help you decide how hot, cold, wet, or windy it might be!

Date:

Astronomy

Sep. 15, 2013 Rise Set
Actual Time 7:13 AM EDT 7:32 PM EDT
Civil Twilight 6:50 AM EDT 7:55 PM EDT
Nautical Twilight 6:23 AM EDT 8:22 PM EDT
Astronomical Twilight 5:55 AM EDT 8:49 PM EDT
Moon 4:42 PM EDT (9/15) 3:08 AM EDT (9/15)
Length of Visible Light 13h 05m
Length of Day
12h 18m
Waxing Gibbous, 82% of the Moon is Illuminated
Sep 15
Waxing Gibbous
Sep 19
Full
Sep 26
Last Quarter
Oct 4
New
Oct 11
First Quarter

Hourly Weather History & Observations

Time (EDT) Temp. Heat Index Dew Point Humidity Pressure Visibility Wind Dir Wind Speed Gust Speed Precip Events Conditions
12:53 AM 75.9 °F - 73.0 °F 91% 30.00 in 10.0 mi NE 4.6 mph - N/A   Clear
1:53 AM 75.9 °F - 73.0 °F 91% 29.99 in 10.0 mi East 3.5 mph - N/A   Clear
2:53 AM 75.9 °F - 73.9 °F 94% 29.98 in 10.0 mi Calm Calm - N/A   Clear
3:53 AM 78.1 °F - 75.0 °F 90% 29.97 in 10.0 mi ESE 4.6 mph - N/A   Clear
4:53 AM 75.9 °F - 75.0 °F 97% 29.98 in 10.0 mi ENE 5.8 mph - N/A   Clear
5:53 AM 75.9 °F - 73.9 °F 94% 29.99 in 10.0 mi NE 6.9 mph - N/A   Clear
6:53 AM 75.9 °F - 73.9 °F 94% 30.00 in 10.0 mi ENE 4.6 mph - N/A   Clear
7:53 AM 75.9 °F - 75.0 °F 97% 30.01 in 9.0 mi Calm Calm - N/A   Clear
8:53 AM 79.0 °F - 75.9 °F 90% 30.03 in 10.0 mi East 6.9 mph - N/A   Clear
9:53 AM 84.9 °F 95.3 °F 77.0 °F 77% 30.05 in 10.0 mi East 11.5 mph - N/A   Clear
10:53 AM 87.1 °F 97.3 °F 75.9 °F 69% 30.05 in 10.0 mi ESE 12.7 mph 19.6 mph N/A   Scattered Clouds
11:19 AM 87.8 °F 97.6 °F 75.2 °F 66% 30.05 in 10.0 mi ESE 11.5 mph - N/A   Mostly Cloudy
11:26 AM 87.8 °F 97.6 °F 75.2 °F 66% 30.05 in 10.0 mi East 11.5 mph 16.1 mph N/A   Partly Cloudy
11:53 AM 89.1 °F 100.2 °F 75.9 °F 65% 30.05 in 10.0 mi East 13.8 mph 19.6 mph N/A   Scattered Clouds
12:53 PM 90.0 °F 99.0 °F 73.9 °F 59% 30.04 in 10.0 mi East 11.5 mph - N/A   Scattered Clouds
1:53 PM 91.9 °F 101.3 °F 73.9 °F 55% 30.01 in 10.0 mi SE 10.4 mph - N/A   Partly Cloudy
2:53 PM 86.0 °F 91.5 °F 71.1 °F 61% 30.03 in 10.0 mi SSE 25.3 mph 36.8 mph N/A   Mostly Cloudy
3:25 PM 77.0 °F - 73.4 °F 89% 30.04 in 6.0 mi ESE 15.0 mph 27.6 mph 0.00 in Rain Light Rain
3:35 PM 75.2 °F - 73.4 °F 94% 30.03 in 7.0 mi East 10.4 mph 19.6 mph 0.00 in Rain Light Rain
3:53 PM 77.0 °F - 73.9 °F 90% 30.02 in 10.0 mi East 6.9 mph - 0.00 in Rain Light Rain
4:53 PM 79.0 °F - 72.0 °F 79% 30.01 in 10.0 mi SSE 9.2 mph - 0.00 in   Mostly Cloudy
5:53 PM 78.1 °F - 73.9 °F 87% 30.07 in 10.0 mi NE 9.2 mph - N/A   Clear
6:53 PM 78.1 °F - 75.9 °F 93% 30.06 in 10.0 mi South 5.8 mph - 0.00 in Rain Light Rain
7:53 PM 77.0 °F - 75.0 °F 94% 30.02 in 10.0 mi South 4.6 mph - 0.00 in   Clear
8:53 PM 77.0 °F - 73.9 °F 90% 30.06 in 10.0 mi ESE 3.5 mph - N/A   Clear
9:53 PM 77.0 °F - 75.0 °F 94% 30.10 in 10.0 mi NNE 5.8 mph - N/A   Clear
10:44 PM 77.0 °F - 75.2 °F 94% 30.07 in 10.0 mi NNE 5.8 mph - N/A   Mostly Cloudy
10:53 PM 77.0 °F - 75.0 °F 94% 30.07 in 10.0 mi NE 4.6 mph - N/A   Mostly Cloudy
11:53 PM 77.0 °F - 75.0 °F 94% 30.04 in 10.0 mi Calm Calm - N/A   Clear